Evansville, IN

3:36 AM CDT on May 24, 2018 (GMT -0500)
Evansville Regional

Weather History for KEVV - February, 2014

Change the Weather History Date:

Wednesday, February 26, 2014

  Actual Average Record
Temperature  
Mean Temperature 20 °F 40 °F  
Max Temperature 26 °F 50 °F 72 °F (1996)
Min Temperature 14 °F 30 °F 4 °F (1934)
Degree Days  
Heating Degree Days 45 25  
Month to date heating degree days 909 746  
Since 1 July heating degree days 3885 3525  
Cooling Degree Days 0 0  
Month to date cooling degree days 0 0  
Year to date cooling degree days 0 0  
Moisture  
Dew Point 6 °F    
Average Humidity 55    
Maximum Humidity 73    
Minimum Humidity 37    
Precipitation  
Precipitation T in 0.12 in 2.37 in (1955)
Month to date precipitation 2.26 2.95  
Year to date precipitation 3.95 6.05  
Snow  
Snow T in 0.10 in 0.70 in (2002)
Month to date snowfall 2.2 3.6  
Since 1 July snowfall 10.0 10.5  
Snow Depth 0.00 in    
Sea Level Pressure  
Sea Level Pressure 30.20 in    
Wind  
Wind Speed 9 mph (NW)    
Max Wind Speed 21 mph    
Max Gust Speed 28 mph    
Visibility 9 miles    
Events Snow    
T = Trace of Precipitation, MM = Missing Value Source: NWS Daily Summary

Daily Weather History Graph

Daily Weather History Graph

Search for Another Location

Airport or City:

Astronomy

Feb. 26, 2014 Rise Set
Actual Time 6:25 AM CST 5:40 PM CST
Civil Twilight 5:59 AM CST 6:07 PM CST
Nautical Twilight 5:28 AM CST 6:37 PM CST
Astronomical Twilight 4:58 AM CST 7:08 PM CST
Moon 4:09 AM CST (2/26) 2:56 PM CST (2/26)
Length of Visible Light 12h 07m
Length of Day
11h 14m
Waning Crescent, 10% of the Moon is Illuminated
Feb 26
Waning Crescent
Mar 1
New
Mar 8
First Quarter
Mar 16
Full
Mar 23
Last Quarter

Hourly Weather History & Observations

Time (CST) Temp. Windchill Dew Point Humidity Pressure Visibility Wind Dir Wind Speed Gust Speed Precip Events Conditions
12:25 AM 25.0 °F 12.6 °F 14.0 °F 63% 30.21 in 9.0 mi NW 15.0 mph 23.0 mph 0.00 in   Overcast
12:54 AM 23.0 °F 11.1 °F 17.1 °F 78% 30.25 in 3.0 mi NNW 12.7 mph - 0.00 in Snow Light Snow
1:04 AM 23.0 °F 10.6 °F 16.0 °F 74% 30.23 in 4.0 mi NNW 13.8 mph 27.6 mph 0.00 in Snow Light Snow
1:12 AM 23.0 °F 9.2 °F 15.1 °F 72% 30.24 in 5.0 mi NNW 17.3 mph 27.6 mph 0.00 in Snow Light Snow
1:54 AM 21.0 °F 8.1 °F 5.0 °F 50% 30.26 in 10.0 mi NNW 13.8 mph 23.0 mph 0.00 in   Overcast
2:54 AM 19.0 °F 6.8 °F 3.0 °F 50% 30.28 in 10.0 mi NNW 11.5 mph - N/A   Overcast
3:54 AM 18.0 °F 5.4 °F 6.1 °F 60% 30.28 in 10.0 mi North 11.5 mph 18.4 mph N/A   Partly Cloudy
4:54 AM 16.0 °F 2.9 °F 3.0 °F 57% 30.29 in 10.0 mi NNW 11.5 mph 21.9 mph N/A   Partly Cloudy
5:54 AM 14.0 °F -1.4 °F 1.9 °F 59% 30.31 in 10.0 mi NNW 15.0 mph - N/A   Clear
6:54 AM 14.0 °F 1.2 °F 1.9 °F 59% 30.31 in 10.0 mi NNW 10.4 mph - N/A   Partly Cloudy
7:01 AM 14.0 °F 2.0 °F 1.9 °F 59% 30.29 in 10.0 mi NNW 9.2 mph - N/A   Mostly Cloudy
7:54 AM 16.0 °F 2.9 °F 5.0 °F 62% 30.32 in 10.0 mi North 11.5 mph - N/A   Mostly Cloudy
8:06 AM 15.1 °F 1.1 °F 3.9 °F 61% 30.31 in 10.0 mi NNW 12.7 mph - N/A   Overcast
8:54 AM 16.0 °F 5.3 °F 3.9 °F 59% 30.31 in 10.0 mi North 8.1 mph - N/A   Scattered Clouds
9:10 AM 19.0 °F 8.2 °F 6.1 °F 57% 30.29 in 10.0 mi North 9.2 mph - N/A   Mostly Cloudy
9:54 AM 19.0 °F 11.1 °F 5.0 °F 54% 30.30 in 10.0 mi Variable 5.8 mph - 0.00 in   Mostly Cloudy
10:54 AM 19.0 °F 8.2 °F 6.1 °F 57% 30.29 in 10.0 mi North 9.2 mph 18.4 mph N/A   Mostly Cloudy
11:54 AM 21.0 °F 14.6 °F 5.0 °F 50% 30.26 in 10.0 mi NNW 4.6 mph - N/A   Partly Cloudy
12:54 PM 21.9 °F 12.5 °F 3.9 °F 46% 30.21 in 10.0 mi NNW 8.1 mph - N/A   Clear
1:54 PM 23.0 °F 15.8 °F 3.9 °F 44% 30.16 in 10.0 mi West 5.8 mph - N/A   Clear
2:54 PM 25.0 °F 14.8 °F 3.9 °F 41% 30.13 in 10.0 mi WNW 10.4 mph - N/A   Clear
3:54 PM 26.1 °F 15.0 °F 3.9 °F 39% 30.11 in 10.0 mi NW 12.7 mph - N/A   Clear
4:54 PM 25.0 °F - 3.9 °F 41% 30.09 in 10.0 mi North - - N/A   Clear
5:54 PM 21.9 °F 13.4 °F 5.0 °F 48% 30.08 in 10.0 mi West 6.9 mph - N/A   Clear
6:54 PM 19.9 °F 13.4 °F 5.0 °F 52% 30.06 in 10.0 mi West 4.6 mph - N/A   Clear
7:54 PM 18.0 °F 11.1 °F 7.0 °F 62% 30.04 in 10.0 mi SW 4.6 mph - N/A   Clear
8:54 PM 17.1 °F 10.0 °F 6.1 °F 62% 30.03 in 10.0 mi SW 4.6 mph - N/A   Clear
9:54 PM 18.0 °F 9.8 °F 7.0 °F 62% 30.02 in 10.0 mi WSW 5.8 mph - N/A   Clear
10:54 PM 16.0 °F 7.4 °F 8.1 °F 71% 30.03 in 10.0 mi WSW 5.8 mph - N/A   Clear
11:54 PM 16.0 °F 7.4 °F 8.1 °F 71% 30.01 in 10.0 mi WSW 5.8 mph - N/A   Clear